Location: Innsbruck
(47.2657°N, 11.3914°E)
Time: 13:54:26
(UTC+01:00)

XW-2F - Visible Passes

Search period start: 06 December 2021 00:00
Search period end: 16 December 2021 00:00
Orbit: 497 x 514 km, 97.5° (Epoch: 06 December)

Date Brightness Start Highest point End Pass type
(mag) Time Alt. Az. Time Alt. Az. Time Alt. Az.
06 Dec ? 05:57:02 10° NNE 06:00:25 30° E 06:03:45 10° SSE visible
06 Dec ? 18:12:35 10° SSW 18:15:53 30° W 18:19:15 10° NNW visible
07 Dec ? 05:39:42 10° NE 05:42:30 20° E 05:45:17 10° SE visible
07 Dec ? 17:54:25 10° S 17:58:01 48° W 18:01:41 10° NNW visible
08 Dec ? 05:22:49 10° ENE 05:24:32 13° E 05:26:15 10° ESE visible
08 Dec ? 06:55:02 10° N 06:58:45 55° WNW 07:02:25 10° SSW visible
08 Dec ? 17:36:28 10° S 17:40:12 81° WSW 17:43:59 10° NNW visible
09 Dec ? 06:37:11 10° NNE 06:40:58 90° WSW 06:44:43 10° SSW visible
09 Dec ? 17:18:43 10° SSE 17:22:24 62° ENE 17:26:08 10° N visible
09 Dec ? 18:55:29 10° WSW 18:56:41 11° W 18:57:52 10° WNW visible
10 Dec ? 06:19:25 10° NNE 06:23:08 55° E 06:26:49 10° S visible
10 Dec ? 17:01:10 10° SE 17:04:39 38° ENE 17:08:10 10° N visible
10 Dec ? 18:36:07 10° SW 18:38:40 18° W 18:41:16 10° NW visible
11 Dec ? 06:01:47 10° NNE 06:05:16 34° E 06:08:41 10° SSE visible
11 Dec ? 18:17:30 10° SSW 18:20:43 27° W 18:23:58 10° NW visible
12 Dec ? 05:44:21 10° NE 05:47:19 22° E 05:50:16 10° SE visible
12 Dec ? 17:59:14 10° S 18:02:48 43° W 18:06:25 10° NNW visible
13 Dec ? 05:27:16 10° ENE 05:29:20 14° E 05:31:23 10° SE visible
13 Dec ? 06:59:50 10° N 07:03:29 48° WNW 07:07:05 10° SSW visible
13 Dec ? 17:41:12 10° S 17:44:56 71° WSW 17:48:42 10° NNW visible
14 Dec ? 06:41:54 10° N 06:45:41 80° WNW 06:49:24 10° SSW visible
14 Dec ? 17:23:22 10° SSE 17:27:06 71° ENE 17:30:51 10° N visible
15 Dec ? 06:24:05 10° NNE 06:27:50 63° ESE 06:31:32 10° S visible
15 Dec ? 17:05:44 10° SE 17:09:17 43° ENE 17:12:53 10° N visible
15 Dec ? 18:41:03 10° SW 18:43:23 16° W 18:45:44 10° NW visible
